owner,sensor,date,latitude,longitude,sea_surface_height_above_sea_level,qcFlag 
COMPS,ioos:station:USF.COMPS:ANM:1,2009-02-01T00:00:00Z,27.5400,-82.7400,-0.542,1111122 
COMPS,ioos:station:USF.COMPS:ANM:1,2009-02-01T00:06:00Z,27.5400,-82.7400,-0.549,1111122 
COMPS,ioos:station:USF.COMPS:ANM:1,2009-02-01T00:12:00Z,27.5400,-82.7400,-0.562,1111122 
COMPS,ioos:station:USF.COMPS:ANM:1,2009-02-01T00:18:00Z,27.5400,-82.7400,-0.562,1111122 
COMPS,ioos:station:USF.COMPS:ANM:1,2009-02-01T00:24:00Z,27.5400,-82.7400,-0.581,1111122 
COMPS,ioos:station:USF.COMPS:ANM:1,2009-02-01T00:30:00Z,27.5400,-82.7400,-0.58,1111122 
COMPS,ioos:station:USF.COMPS:ANM:1,2009-02-01T00:36:00Z,27.5400,-82.7400,-0.594,1111122 
COMPS,ioos:station:USF.COMPS:ANM:1,2009-02-01T00:42:00Z,27.5400,-82.7400,-0.603,1111122 
COMPS,ioos:station:USF.COMPS:ANM:1,2009-02-01T00:48:00Z,27.5400,-82.7400,-0.612,1111122 
COMPS,ioos:station:USF.COMPS:ANM:1,2009-02-01T00:54:00Z,27.5400,-82.7400,-0.614,1111122 
COMPS,ioos:station:USF.COMPS:ANM:1,2009-02-01T01:00:00Z,27.5400,-82.7400,-0.618,1111122 
COMPS,ioos:station:USF.COMPS:ANM:1,2009-02-01T01:06:00Z,27.5400,-82.7400,-0.627,1111122 
COMPS,ioos:station:USF.COMPS:ANM:1,2009-02-01T01:12:00Z,27.5400,-82.7400,-0.634,1111122 
COMPS,ioos:station:USF.COMPS:ANM:1,2009-02-01T01:18:00Z,27.5400,-82.7400,-0.641,1111122 
COMPS,ioos:station:USF.COMPS:ANM:1,2009-02-01T01:24:00Z,27.5400,-82.7400,-0.643,1111122 
COMPS,ioos:station:USF.COMPS:ANM:1,2009-02-01T01:30:00Z,27.5400,-82.7400,-0.641,1111122 
COMPS,ioos:station:USF.COMPS:ANM:1,2009-02-01T01:36:00Z,27.5400,-82.7400,-0.647,1111122 
COMPS,ioos:station:USF.COMPS:ANM:1,2009-02-01T01:42:00Z,27.5400,-82.7400,-0.643,1111122 
COMPS,ioos:station:USF.COMPS:ANM:1,2009-02-01T01:48:00Z,27.5400,-82.7400,-0.648,1111122 
COMPS,ioos:station:USF.COMPS:ANM:1,2009-02-01T01:54:00Z,27.5400,-82.7400,-0.643,1111122 
COMPS,ioos:station:USF.COMPS:ANM:1,2009-02-01T02:00:00Z,27.5400,-82.7400,-0.64,1111122 
COMPS,ioos:station:USF.COMPS:ANM:1,2009-02-01T02:06:00Z,27.5400,-82.7400,-0.637,1111122 
COMPS,ioos:station:USF.COMPS:ANM:1,2009-02-01T02:12:00Z,27.5400,-82.7400,-0.634,1111122 
COMPS,ioos:station:USF.COMPS:ANM:1,2009-02-01T02:18:00Z,27.5400,-82.7400,-0.636,1111122 
COMPS,ioos:station:USF.COMPS:ANM:1,2009-02-01T02:24:00Z,27.5400,-82.7400,-0.631,1111122 
COMPS,ioos:station:USF.COMPS:ANM:1,2009-02-01T02:30:00Z,27.5400,-82.7400,-0.63,1111122 
COMPS,ioos:station:USF.COMPS:ANM:1,2009-02-01T02:36:00Z,27.5400,-82.7400,-0.626,1111122 
COMPS,ioos:station:USF.COMPS:ANM:1,2009-02-01T02:42:00Z,27.5400,-82.7400,-0.618,1111122 
COMPS,ioos:station:USF.COMPS:ANM:1,2009-02-01T02:48:00Z,27.5400,-82.7400,-0.605,1111122 
COMPS,ioos:station:USF.COMPS:ANM:1,2009-02-01T02:54:00Z,27.5400,-82.7400,-0.598,1111122 
COMPS,ioos:station:USF.COMPS:ANM:1,2009-02-01T03:00:00Z,27.5400,-82.7400,-0.586,1111122 
COMPS,ioos:station:USF.COMPS:ANM:1,2009-02-01T03:06:00Z,27.5400,-82.7400,-0.578,1111122 
COMPS,ioos:station:USF.COMPS:ANM:1,2009-02-01T03:12:00Z,27.5400,-82.7400,-0.573,1111122 
COMPS,ioos:station:USF.COMPS:ANM:1,2009-02-01T03:18:00Z,27.5400,-82.7400,-0.565,1111122 
COMPS,ioos:station:USF.COMPS:ANM:1,2009-02-01T03:24:00Z,27.5400,-82.7400,-0.561,1111122 
COMPS,ioos:station:USF.COMPS:ANM:1,2009-02-01T03:30:00Z,27.5400,-82.7400,-0.544,1111122 
COMPS,ioos:station:USF.COMPS:ANM:1,2009-02-01T03:36:00Z,27.5400,-82.7400,-0.534,1111122 
COMPS,ioos:station:USF.COMPS:ANM:1,2009-02-01T03:42:00Z,27.5400,-82.7400,-0.522,1111122 
COMPS,ioos:station:USF.COMPS:ANM:1,2009-02-01T03:48:00Z,27.5400,-82.7400,-0.512,1111122 
COMPS,ioos:station:USF.COMPS:ANM:1,2009-02-01T03:54:00Z,27.5400,-82.7400,-0.51,1111122 
COMPS,ioos:station:USF.COMPS:ANM:1,2009-02-01T04:00:00Z,27.5400,-82.7400,-0.499,1111122 
COMPS,ioos:station:USF.COMPS:ANM:1,2009-02-01T04:06:00Z,27.5400,-82.7400,-0.496,1111122 
COMPS,ioos:station:USF.COMPS:ANM:1,2009-02-01T04:12:00Z,27.5400,-82.7400,-0.482,1111122 
COMPS,ioos:station:USF.COMPS:ANM:1,2009-02-01T04:18:00Z,27.5400,-82.7400,-0.479,1111122 
COMPS,ioos:station:USF.COMPS:ANM:1,2009-02-01T04:24:00Z,27.5400,-82.7400,-0.475,1111122 
COMPS,ioos:station:USF.COMPS:ANM:1,2009-02-01T04:30:00Z,27.5400,-82.7400,-0.469,1111122 
COMPS,ioos:station:USF.COMPS:ANM:1,2009-02-01T04:36:00Z,27.5400,-82.7400,-0.461,1111122 
COMPS,ioos:station:USF.COMPS:ANM:1,2009-02-01T04:42:00Z,27.5400,-82.7400,-0.458,1111122 
COMPS,ioos:station:USF.COMPS:ANM:1,2009-02-01T04:48:00Z,27.5400,-82.7400,-0.452,1111122 
COMPS,ioos:station:USF.COMPS:ANM:1,2009-02-01T04:54:00Z,27.5400,-82.7400,-0.435,1111122 
COMPS,ioos:station:USF.COMPS:ANM:1,2009-02-01T05:00:00Z,27.5400,-82.7400,-0.434,1111122 
COMPS,ioos:station:USF.COMPS:ANM:1,2009-02-01T05:06:00Z,27.5400,-82.7400,-0.427,1111122 
COMPS,ioos:station:USF.COMPS:ANM:1,2009-02-01T05:12:00Z,27.5400,-82.7400,-0.423,1111122 
COMPS,ioos:station:USF.COMPS:ANM:1,2009-02-01T05:18:00Z,27.5400,-82.7400,-0.416,1111122 
COMPS,ioos:station:USF.COMPS:ANM:1,2009-02-01T05:24:00Z,27.5400,-82.7400,-0.413,1111122 
COMPS,ioos:station:USF.COMPS:ANM:1,2009-02-01T05:30:00Z,27.5400,-82.7400,-0.417,1111122 
COMPS,ioos:station:USF.COMPS:ANM:1,2009-02-01T05:36:00Z,27.5400,-82.7400,-0.415,1111122 
COMPS,ioos:station:USF.COMPS:ANM:1,2009-02-01T05:42:00Z,27.5400,-82.7400,-0.415,1111122 
COMPS,ioos:station:USF.COMPS:ANM:1,2009-02-01T05:48:00Z,27.5400,-82.7400,-0.405,1111122 
COMPS,ioos:station:USF.COMPS:ANM:1,2009-02-01T05:54:00Z,27.5400,-82.7400,-0.398,1111122 
COMPS,ioos:station:USF.COMPS:ANM:1,2009-02-01T06:00:00Z,27.5400,-82.7400,-0.394,1111122 
COMPS,ioos:station:USF.COMPS:ANM:1,2009-02-01T06:06:00Z,27.5400,-82.7400,-0.387,1111122 
COMPS,ioos:station:USF.COMPS:ANM:1,2009-02-01T06:12:00Z,27.5400,-82.7400,-0.388,1111122 
COMPS,ioos:station:USF.COMPS:ANM:1,2009-02-01T06:18:00Z,27.5400,-82.7400,-0.382,1111122 
COMPS,ioos:station:USF.COMPS:ANM:1,2009-02-01T06:24:00Z,27.5400,-82.7400,-0.375,1111122 
COMPS,ioos:station:USF.COMPS:ANM:1,2009-02-01T06:30:00Z,27.5400,-82.7400,-0.377,1111122 
COMPS,ioos:station:USF.COMPS:ANM:1,2009-02-01T06:36:00Z,27.5400,-82.7400,-0.377,1111122 
COMPS,ioos:station:USF.COMPS:ANM:1,2009-02-01T06:42:00Z,27.5400,-82.7400,-0.378,1111122 
COMPS,ioos:station:USF.COMPS:ANM:1,2009-02-01T06:48:00Z,27.5400,-82.7400,-0.373,1111122 
COMPS,ioos:station:USF.COMPS:ANM:1,2009-02-01T06:54:00Z,27.5400,-82.7400,-0.362,1111122 
COMPS,ioos:station:USF.COMPS:ANM:1,2009-02-01T07:00:00Z,27.5400,-82.7400,-0.36,1111122 
COMPS,ioos:station:USF.COMPS:ANM:1,2009-02-01T07:06:00Z,27.5400,-82.7400,-0.359,1111122 
COMPS,ioos:station:USF.COMPS:ANM:1,2009-02-01T07:12:00Z,27.5400,-82.7400,-0.357,1111122 
COMPS,ioos:station:USF.COMPS:ANM:1,2009-02-01T07:18:00Z,27.5400,-82.7400,-0.361,1111122 
COMPS,ioos:station:USF.COMPS:ANM:1,2009-02-01T07:24:00Z,27.5400,-82.7400,-0.354,1111122 
COMPS,ioos:station:USF.COMPS:ANM:1,2009-02-01T07:30:00Z,27.5400,-82.7400,-0.356,1111122 
COMPS,ioos:station:USF.COMPS:ANM:1,2009-02-01T07:36:00Z,27.5400,-82.7400,-0.351,1111122 
COMPS,ioos:station:USF.COMPS:ANM:1,2009-02-01T07:42:00Z,27.5400,-82.7400,-0.464,1111122 
COMPS,ioos:station:USF.COMPS:ANM:1,2009-02-01T07:48:00Z,27.5400,-82.7400,-0.346,1111122 
COMPS,ioos:station:USF.COMPS:ANM:1,2009-02-01T07:54:00Z,27.5400,-82.7400,-0.366,1111122 
COMPS,ioos:station:USF.COMPS:ANM:1,2009-02-01T08:00:00Z,27.5400,-82.7400,-0.337,1111122 
COMPS,ioos:station:USF.COMPS:ANM:1,2009-02-01T08:06:00Z,27.5400,-82.7400,-0.466,1111122 
COMPS,ioos:station:USF.COMPS:ANM:1,2009-02-01T08:12:00Z,27.5400,-82.7400,-0.776,1111122 
COMPS,ioos:station:USF.COMPS:ANM:1,2009-02-01T08:18:00Z,27.5400,-82.7400,-0.776,1111122 
COMPS,ioos:station:USF.COMPS:ANM:1,2009-02-01T08:24:00Z,27.5400,-82.7400,-0.678,1111122 
COMPS,ioos:station:USF.COMPS:ANM:1,2009-02-01T08:30:00Z,27.5400,-82.7400,-0.464,1111122 
COMPS,ioos:station:USF.COMPS:ANM:1,2009-02-01T08:36:00Z,27.5400,-82.7400,-0.468,1111122 
COMPS,ioos:station:USF.COMPS:ANM:1,2009-02-01T08:42:00Z,27.5400,-82.7400,-0.754,1111122 
COMPS,ioos:station:USF.COMPS:ANM:1,2009-02-01T08:48:00Z,27.5400,-82.7400,-0.437,1111122 
COMPS,ioos:station:USF.COMPS:ANM:1,2009-02-01T08:54:00Z,27.5400,-82.7400,-0.629,1111122 
COMPS,ioos:station:USF.COMPS:ANM:1,2009-02-01T09:00:00Z,27.5400,-82.7400,-0.325,1111122 
COMPS,ioos:station:USF.COMPS:ANM:1,2009-02-01T09:06:00Z,27.5400,-82.7400,-0.767,1111122 
COMPS,ioos:station:USF.COMPS:ANM:1,2009-02-01T09:12:00Z,27.5400,-82.7400,-0.765,1111122 
COMPS,ioos:station:USF.COMPS:ANM:1,2009-02-01T09:18:00Z,27.5400,-82.7400,-0.623,1111122 
COMPS,ioos:station:USF.COMPS:ANM:1,2009-02-01T09:24:00Z,27.5400,-82.7400,-0.651,1111122 
COMPS,ioos:station:USF.COMPS:ANM:1,2009-02-01T09:30:00Z,27.5400,-82.7400,-0.763,1111122 
COMPS,ioos:station:USF.COMPS:ANM:1,2009-02-01T09:36:00Z,27.5400,-82.7400,-0.754,1111122 
COMPS,ioos:station:USF.COMPS:ANM:1,2009-02-01T09:42:00Z,27.5400,-82.7400,-0.757,1111122 
COMPS,ioos:station:USF.COMPS:ANM:1,2009-02-01T09:48:00Z,27.5400,-82.7400,-0.759,1111122 
COMPS,ioos:station:USF.COMPS:ANM:1,2009-02-01T09:54:00Z,27.5400,-82.7400,-0.757,1111122 
COMPS,ioos:station:USF.COMPS:ANM:1,2009-02-01T10:00:00Z,27.5400,-82.7400,-0.757,1111122 
COMPS,ioos:station:USF.COMPS:ANM:1,2009-02-01T10:06:00Z,27.5400,-82.7400,-0.76,1111122 
COMPS,ioos:station:USF.COMPS:ANM:1,2009-02-01T10:12:00Z,27.5400,-82.7400,-0.761,1111122 
COMPS,ioos:station:USF.COMPS:ANM:1,2009-02-01T10:18:00Z,27.5400,-82.7400,-0.76,1111122 
COMPS,ioos:station:USF.COMPS:ANM:1,2009-02-01T10:24:00Z,27.5400,-82.7400,-0.679,1111122 
COMPS,ioos:station:USF.COMPS:ANM:1,2009-02-01T10:30:00Z,27.5400,-82.7400,-0.762,1111122 
COMPS,ioos:station:USF.COMPS:ANM:1,2009-02-01T10:36:00Z,27.5400,-82.7400,-0.783,1111122 
COMPS,ioos:station:USF.COMPS:ANM:1,2009-02-01T10:42:00Z,27.5400,-82.7400,-0.693,1111122 
COMPS,ioos:station:USF.COMPS:ANM:1,2009-02-01T10:48:00Z,27.5400,-82.7400,-0.645,1111122 
COMPS,ioos:station:USF.COMPS:ANM:1,2009-02-01T10:54:00Z,27.5400,-82.7400,-0.533,1111122 
COMPS,ioos:station:USF.COMPS:ANM:1,2009-02-01T11:00:00Z,27.5400,-82.7400,-0.392,1111122 
COMPS,ioos:station:USF.COMPS:ANM:1,2009-02-01T11:06:00Z,27.5400,-82.7400,-0.377,1111122 
COMPS,ioos:station:USF.COMPS:ANM:1,2009-02-01T11:12:00Z,27.5400,-82.7400,-0.366,1111122 
COMPS,ioos:station:USF.COMPS:ANM:1,2009-02-01T11:18:00Z,27.5400,-82.7400,-0.371,1111122 
COMPS,ioos:station:USF.COMPS:ANM:1,2009-02-01T11:24:00Z,27.5400,-82.7400,-0.386,1111122 
COMPS,ioos:station:USF.COMPS:ANM:1,2009-02-01T11:30:00Z,27.5400,-82.7400,-0.536,1111122 
COMPS,ioos:station:USF.COMPS:ANM:1,2009-02-01T11:36:00Z,27.5400,-82.7400,-0.404,1111122 
COMPS,ioos:station:USF.COMPS:ANM:1,2009-02-01T11:42:00Z,27.5400,-82.7400,-0.417,1111122 
COMPS,ioos:station:USF.COMPS:ANM:1,2009-02-01T11:48:00Z,27.5400,-82.7400,-0.403,1111122 
COMPS,ioos:station:USF.COMPS:ANM:1,2009-02-01T11:54:00Z,27.5400,-82.7400,-0.434,1111122 
COMPS,ioos:station:USF.COMPS:ANM:1,2009-02-01T12:00:00Z,27.5400,-82.7400,-0.406,1111122 
COMPS,ioos:station:USF.COMPS:ANM:1,2009-02-01T12:06:00Z,27.5400,-82.7400,-0.416,1111122 
COMPS,ioos:station:USF.COMPS:ANM:1,2009-02-01T12:12:00Z,27.5400,-82.7400,-0.415,1111122 
COMPS,ioos:station:USF.COMPS:ANM:1,2009-02-01T12:18:00Z,27.5400,-82.7400,-0.561,1111122 
COMPS,ioos:station:USF.COMPS:ANM:1,2009-02-01T12:24:00Z,27.5400,-82.7400,-0.435,1111122 
COMPS,ioos:station:USF.COMPS:ANM:1,2009-02-01T12:30:00Z,27.5400,-82.7400,-0.517,1111122 
COMPS,ioos:station:USF.COMPS:ANM:1,2009-02-01T12:36:00Z,27.5400,-82.7400,-0.441,1111122 
COMPS,ioos:station:USF.COMPS:ANM:1,2009-02-01T12:42:00Z,27.5400,-82.7400,-0.443,1111122 
COMPS,ioos:station:USF.COMPS:ANM:1,2009-02-01T12:48:00Z,27.5400,-82.7400,-0.443,1111122 
COMPS,ioos:station:USF.COMPS:ANM:1,2009-02-01T12:54:00Z,27.5400,-82.7400,-0.449,1111122 
COMPS,ioos:station:USF.COMPS:ANM:1,2009-02-01T13:00:00Z,27.5400,-82.7400,-0.45,1111122 
COMPS,ioos:station:USF.COMPS:ANM:1,2009-02-01T13:06:00Z,27.5400,-82.7400,-0.452,1111122 
COMPS,ioos:station:USF.COMPS:ANM:1,2009-02-01T13:12:00Z,27.5400,-82.7400,-0.447,1111122 
COMPS,ioos:station:USF.COMPS:ANM:1,2009-02-01T13:18:00Z,27.5400,-82.7400,-0.455,1111122 
COMPS,ioos:station:USF.COMPS:ANM:1,2009-02-01T13:24:00Z,27.5400,-82.7400,-0.458,1111122 
COMPS,ioos:station:USF.COMPS:ANM:1,2009-02-01T13:30:00Z,27.5400,-82.7400,-0.461,1111122 
COMPS,ioos:station:USF.COMPS:ANM:1,2009-02-01T13:36:00Z,27.5400,-82.7400,-0.457,1111122 
COMPS,ioos:station:USF.COMPS:ANM:1,2009-02-01T13:42:00Z,27.5400,-82.7400,-0.449,1111122 
COMPS,ioos:station:USF.COMPS:ANM:1,2009-02-01T13:48:00Z,27.5400,-82.7400,-0.869,1111122 
COMPS,ioos:station:USF.COMPS:ANM:1,2009-02-01T13:54:00Z,27.5400,-82.7400,-0.863,1111122 
COMPS,ioos:station:USF.COMPS:ANM:1,2009-02-01T14:00:00Z,27.5400,-82.7400,-0.664,1111122 
COMPS,ioos:station:USF.COMPS:ANM:1,2009-02-01T14:06:00Z,27.5400,-82.7400,-0.451,1111122 
COMPS,ioos:station:USF.COMPS:ANM:1,2009-02-01T14:12:00Z,27.5400,-82.7400,2.886,1111122 
COMPS,ioos:station:USF.COMPS:ANM:1,2009-02-01T14:18:00Z,27.5400,-82.7400,2.886,1111122 
COMPS,ioos:station:USF.COMPS:ANM:1,2009-02-01T16:54:00Z,27.5400,-82.7400,-0.244,1111122 
COMPS,ioos:station:USF.COMPS:ANM:1,2009-02-01T17:36:00Z,27.5400,-82.7400,-0.201,1111122 
COMPS,ioos:station:USF.COMPS:ANM:1,2009-02-01T17:42:00Z,27.5400,-82.7400,-0.19,1111122 
COMPS,ioos:station:USF.COMPS:ANM:1,2009-02-01T17:48:00Z,27.5400,-82.7400,-0.181,1111122 
COMPS,ioos:station:USF.COMPS:ANM:1,2009-02-01T17:54:00Z,27.5400,-82.7400,-0.176,1111122 
COMPS,ioos:station:USF.COMPS:ANM:1,2009-02-01T18:00:00Z,27.5400,-82.7400,-0.174,1111122 
COMPS,ioos:station:USF.COMPS:ANM:1,2009-02-01T18:06:00Z,27.5400,-82.7400,-0.17,1111122 
COMPS,ioos:station:USF.COMPS:ANM:1,2009-02-01T18:12:00Z,27.5400,-82.7400,-0.161,1111122 
COMPS,ioos:station:USF.COMPS:ANM:1,2009-02-01T18:18:00Z,27.5400,-82.7400,-0.145,1111122 
COMPS,ioos:station:USF.COMPS:ANM:1,2009-02-01T18:24:00Z,27.5400,-82.7400,-0.147,1111122 
COMPS,ioos:station:USF.COMPS:ANM:1,2009-02-01T18:30:00Z,27.5400,-82.7400,-0.142,1111122 
COMPS,ioos:station:USF.COMPS:ANM:1,2009-02-01T18:36:00Z,27.5400,-82.7400,-0.13,1111122 
COMPS,ioos:station:USF.COMPS:ANM:1,2009-02-01T18:42:00Z,27.5400,-82.7400,-0.128,1111122 
COMPS,ioos:station:USF.COMPS:ANM:1,2009-02-01T18:48:00Z,27.5400,-82.7400,-0.126,1111122 
COMPS,ioos:station:USF.COMPS:ANM:1,2009-02-01T18:54:00Z,27.5400,-82.7400,-0.114,1111122 
COMPS,ioos:station:USF.COMPS:ANM:1,2009-02-01T19:00:00Z,27.5400,-82.7400,-0.106,1111122 
COMPS,ioos:station:USF.COMPS:ANM:1,2009-02-01T19:06:00Z,27.5400,-82.7400,-0.102,1111122 
COMPS,ioos:station:USF.COMPS:ANM:1,2009-02-01T19:12:00Z,27.5400,-82.7400,-0.095,1111122 
COMPS,ioos:station:USF.COMPS:ANM:1,2009-02-01T19:18:00Z,27.5400,-82.7400,-0.088,1111122 
COMPS,ioos:station:USF.COMPS:ANM:1,2009-02-01T19:24:00Z,27.5400,-82.7400,-0.086,1111122 
COMPS,ioos:station:USF.COMPS:ANM:1,2009-02-01T19:30:00Z,27.5400,-82.7400,-0.084,1111122 
COMPS,ioos:station:USF.COMPS:ANM:1,2009-02-01T19:36:00Z,27.5400,-82.7400,-0.073,1111122 
COMPS,ioos:station:USF.COMPS:ANM:1,2009-02-01T19:42:00Z,27.5400,-82.7400,-0.072,1111122 
COMPS,ioos:station:USF.COMPS:ANM:1,2009-02-01T19:48:00Z,27.5400,-82.7400,-0.072,1111122 
COMPS,ioos:station:USF.COMPS:ANM:1,2009-02-01T19:54:00Z,27.5400,-82.7400,-0.07,1111122 
COMPS,ioos:station:USF.COMPS:ANM:1,2009-02-01T20:00:00Z,27.5400,-82.7400,-0.06,1111122 
COMPS,ioos:station:USF.COMPS:ANM:1,2009-02-01T20:06:00Z,27.5400,-82.7400,-0.06,1111122 
COMPS,ioos:station:USF.COMPS:ANM:1,2009-02-01T20:12:00Z,27.5400,-82.7400,-0.052,1111122 
COMPS,ioos:station:USF.COMPS:ANM:1,2009-02-01T20:18:00Z,27.5400,-82.7400,-0.051,1111122 
COMPS,ioos:station:USF.COMPS:ANM:1,2009-02-01T20:24:00Z,27.5400,-82.7400,-0.047,1111122 
COMPS,ioos:station:USF.COMPS:ANM:1,2009-02-01T20:30:00Z,27.5400,-82.7400,-0.039,1111122 
COMPS,ioos:station:USF.COMPS:ANM:1,2009-02-01T20:36:00Z,27.5400,-82.7400,-0.041,1111122 
COMPS,ioos:station:USF.COMPS:ANM:1,2009-02-01T20:42:00Z,27.5400,-82.7400,-0.038,1111122 
COMPS,ioos:station:USF.COMPS:ANM:1,2009-02-01T20:48:00Z,27.5400,-82.7400,-0.027,1111122 
COMPS,ioos:station:USF.COMPS:ANM:1,2009-02-01T20:54:00Z,27.5400,-82.7400,-0.033,1111122 
COMPS,ioos:station:USF.COMPS:ANM:1,2009-02-01T21:00:00Z,27.5400,-82.7400,-0.033,1111122 
COMPS,ioos:station:USF.COMPS:ANM:1,2009-02-01T21:06:00Z,27.5400,-82.7400,-0.036,1111122 
COMPS,ioos:station:USF.COMPS:ANM:1,2009-02-01T21:12:00Z,27.5400,-82.7400,-0.038,1111122 
COMPS,ioos:station:USF.COMPS:ANM:1,2009-02-01T21:18:00Z,27.5400,-82.7400,-0.04,1111122 
COMPS,ioos:station:USF.COMPS:ANM:1,2009-02-01T21:24:00Z,27.5400,-82.7400,-0.05,1111122 
COMPS,ioos:station:USF.COMPS:ANM:1,2009-02-01T21:30:00Z,27.5400,-82.7400,-0.053,1111122 
COMPS,ioos:station:USF.COMPS:ANM:1,2009-02-01T21:36:00Z,27.5400,-82.7400,-0.049,1111122 
COMPS,ioos:station:USF.COMPS:ANM:1,2009-02-01T21:42:00Z,27.5400,-82.7400,-0.053,1111122 
COMPS,ioos:station:USF.COMPS:ANM:1,2009-02-01T21:48:00Z,27.5400,-82.7400,-0.063,1111122 
COMPS,ioos:station:USF.COMPS:ANM:1,2009-02-01T21:54:00Z,27.5400,-82.7400,-0.065,1111122 
COMPS,ioos:station:USF.COMPS:ANM:1,2009-02-01T22:00:00Z,27.5400,-82.7400,-0.075,1111122 
COMPS,ioos:station:USF.COMPS:ANM:1,2009-02-01T22:06:00Z,27.5400,-82.7400,-0.084,1111122 
COMPS,ioos:station:USF.COMPS:ANM:1,2009-02-01T22:12:00Z,27.5400,-82.7400,-0.095,1111122 
COMPS,ioos:station:USF.COMPS:ANM:1,2009-02-01T22:18:00Z,27.5400,-82.7400,-0.105,1111122 
COMPS,ioos:station:USF.COMPS:ANM:1,2009-02-01T22:24:00Z,27.5400,-82.7400,-0.113,1111122 
COMPS,ioos:station:USF.COMPS:ANM:1,2009-02-01T22:30:00Z,27.5400,-82.7400,-0.122,1111122 
COMPS,ioos:station:USF.COMPS:ANM:1,2009-02-01T22:36:00Z,27.5400,-82.7400,-0.133,1111122 
COMPS,ioos:station:USF.COMPS:ANM:1,2009-02-01T22:42:00Z,27.5400,-82.7400,-0.145,1111122 
COMPS,ioos:station:USF.COMPS:ANM:1,2009-02-01T22:48:00Z,27.5400,-82.7400,-0.151,1111122 
COMPS,ioos:station:USF.COMPS:ANM:1,2009-02-01T22:54:00Z,27.5400,-82.7400,-0.155,1111122 
COMPS,ioos:station:USF.COMPS:ANM:1,2009-02-01T23:00:00Z,27.5400,-82.7400,-0.167,1111122 
COMPS,ioos:station:USF.COMPS:ANM:1,2009-02-01T23:06:00Z,27.5400,-82.7400,-0.178,1111122 
COMPS,ioos:station:USF.COMPS:ANM:1,2009-02-01T23:12:00Z,27.5400,-82.7400,-0.19,1111122 
COMPS,ioos:station:USF.COMPS:ANM:1,2009-02-01T23:18:00Z,27.5400,-82.7400,-0.21,1111122 
COMPS,ioos:station:USF.COMPS:ANM:1,2009-02-01T23:24:00Z,27.5400,-82.7400,-0.226,1111122 
COMPS,ioos:station:USF.COMPS:ANM:1,2009-02-01T23:30:00Z,27.5400,-82.7400,-0.237,1111122 
COMPS,ioos:station:USF.COMPS:ANM:1,2009-02-01T23:36:00Z,27.5400,-82.7400,-0.252,1111122 
COMPS,ioos:station:USF.COMPS:ANM:1,2009-02-01T23:42:00Z,27.5400,-82.7400,-0.248,1111122 
COMPS,ioos:station:USF.COMPS:ANM:1,2009-02-01T23:48:00Z,27.5400,-82.7400,-0.278,1111122 
COMPS,ioos:station:USF.COMPS:ANM:1,2009-02-01T23:54:00Z,27.5400,-82.7400,-0.669,1111122 
COMPS,ioos:station:USF.COMPS:ANM:1,2009-02-02T00:00:00Z,27.5400,-82.7400,-0.806,1111122 
COMPS,ioos:station:USF.COMPS:ANM:1,2009-02-02T00:06:00Z,27.5400,-82.7400,-0.876,1111122 
COMPS,ioos:station:USF.COMPS:ANM:1,2009-02-02T00:12:00Z,27.5400,-82.7400,-0.968,1111122 
COMPS,ioos:station:USF.COMPS:ANM:1,2009-02-02T00:18:00Z,27.5400,-82.7400,-0.991,1111122 
COMPS,ioos:station:USF.COMPS:ANM:1,2009-02-02T00:24:00Z,27.5400,-82.7400,-0.992,1111122 
COMPS,ioos:station:USF.COMPS:ANM:1,2009-02-02T00:30:00Z,27.5400,-82.7400,-1.007,1111122 
COMPS,ioos:station:USF.COMPS:ANM:1,2009-02-02T00:36:00Z,27.5400,-82.7400,-1.018,1111122 
COMPS,ioos:station:USF.COMPS:ANM:1,2009-02-02T00:42:00Z,27.5400,-82.7400,-1.036,1111122 
COMPS,ioos:station:USF.COMPS:ANM:1,2009-02-02T00:48:00Z,27.5400,-82.7400,-1.041,1111122 
COMPS,ioos:station:USF.COMPS:ANM:1,2009-02-02T00:54:00Z,27.5400,-82.7400,-1.074,1111122 
COMPS,ioos:station:USF.COMPS:ANM:1,2009-02-02T01:00:00Z,27.5400,-82.7400,-1.062,1111122 
COMPS,ioos:station:USF.COMPS:ANM:1,2009-02-02T01:06:00Z,27.5400,-82.7400,-1.073,1111122 
COMPS,ioos:station:USF.COMPS:ANM:1,2009-02-02T01:12:00Z,27.5400,-82.7400,-1.085,1111122 
COMPS,ioos:station:USF.COMPS:ANM:1,2009-02-02T01:18:00Z,27.5400,-82.7400,-1.099,1111122 
COMPS,ioos:station:USF.COMPS:ANM:1,2009-02-02T01:24:00Z,27.5400,-82.7400,-1.106,1111122 
COMPS,ioos:station:USF.COMPS:ANM:1,2009-02-02T01:30:00Z,27.5400,-82.7400,-1.113,1111122 
COMPS,ioos:station:USF.COMPS:ANM:1,2009-02-02T01:36:00Z,27.5400,-82.7400,-0.46,1111122 
COMPS,ioos:station:USF.COMPS:ANM:1,2009-02-02T01:42:00Z,27.5400,-82.7400,-0.459,1111122 
COMPS,ioos:station:USF.COMPS:ANM:1,2009-02-02T01:48:00Z,27.5400,-82.7400,-0.459,1111122 
COMPS,ioos:station:USF.COMPS:ANM:1,2009-02-02T01:54:00Z,27.5400,-82.7400,-0.462,1111122 
COMPS,ioos:station:USF.COMPS:ANM:1,2009-02-02T02:00:00Z,27.5400,-82.7400,-0.662,1111122 
COMPS,ioos:station:USF.COMPS:ANM:1,2009-02-02T02:06:00Z,27.5400,-82.7400,-0.47,1111122 
COMPS,ioos:station:USF.COMPS:ANM:1,2009-02-02T02:12:00Z,27.5400,-82.7400,-0.835,1111122 
COMPS,ioos:station:USF.COMPS:ANM:1,2009-02-02T02:18:00Z,27.5400,-82.7400,-0.637,1111122 
COMPS,ioos:station:USF.COMPS:ANM:1,2009-02-02T02:24:00Z,27.5400,-82.7400,-0.476,1111122 
COMPS,ioos:station:USF.COMPS:ANM:1,2009-02-02T02:30:00Z,27.5400,-82.7400,-0.485,1111122 
COMPS,ioos:station:USF.COMPS:ANM:1,2009-02-02T02:36:00Z,27.5400,-82.7400,-0.484,1111122 
COMPS,ioos:station:USF.COMPS:ANM:1,2009-02-02T02:42:00Z,27.5400,-82.7400,-0.49,1111122 
COMPS,ioos:station:USF.COMPS:ANM:1,2009-02-02T02:48:00Z,27.5400,-82.7400,-0.498,1111122 
COMPS,ioos:station:USF.COMPS:ANM:1,2009-02-02T02:54:00Z,27.5400,-82.7400,-0.488,1111122 
COMPS,ioos:station:USF.COMPS:ANM:1,2009-02-02T03:00:00Z,27.5400,-82.7400,-0.482,1111122 
COMPS,ioos:station:USF.COMPS:ANM:1,2009-02-02T03:06:00Z,27.5400,-82.7400,-0.501,1111122 
COMPS,ioos:station:USF.COMPS:ANM:1,2009-02-02T03:12:00Z,27.5400,-82.7400,-0.505,1111122 
COMPS,ioos:station:USF.COMPS:ANM:1,2009-02-02T03:18:00Z,27.5400,-82.7400,-0.505,1111122 
COMPS,ioos:station:USF.COMPS:ANM:1,2009-02-02T03:24:00Z,27.5400,-82.7400,-0.496,1111122 
COMPS,ioos:station:USF.COMPS:ANM:1,2009-02-02T03:30:00Z,27.5400,-82.7400,-0.494,1111122 
COMPS,ioos:station:USF.COMPS:ANM:1,2009-02-02T03:36:00Z,27.5400,-82.7400,-0.492,1111122 
COMPS,ioos:station:USF.COMPS:ANM:1,2009-02-02T03:42:00Z,27.5400,-82.7400,-0.493,1111122 
COMPS,ioos:station:USF.COMPS:ANM:1,2009-02-02T03:48:00Z,27.5400,-82.7400,-0.499,1111122 
COMPS,ioos:station:USF.COMPS:ANM:1,2009-02-02T03:54:00Z,27.5400,-82.7400,-0.485,1111122 
COMPS,ioos:station:USF.COMPS:ANM:1,2009-02-02T04:00:00Z,27.5400,-82.7400,-0.485,1111122 
COMPS,ioos:station:USF.COMPS:ANM:1,2009-02-02T04:06:00Z,27.5400,-82.7400,-0.48,1111122 
COMPS,ioos:station:USF.COMPS:ANM:1,2009-02-02T04:12:00Z,27.5400,-82.7400,-0.478,1111122 
COMPS,ioos:station:USF.COMPS:ANM:1,2009-02-02T04:18:00Z,27.5400,-82.7400,-0.483,1111122 
COMPS,ioos:station:USF.COMPS:ANM:1,2009-02-02T04:24:00Z,27.5400,-82.7400,-0.478,1111122 
COMPS,ioos:station:USF.COMPS:ANM:1,2009-02-02T04:30:00Z,27.5400,-82.7400,-0.47,1111122 
COMPS,ioos:station:USF.COMPS:ANM:1,2009-02-02T04:36:00Z,27.5400,-82.7400,-0.467,1111122 
COMPS,ioos:station:USF.COMPS:ANM:1,2009-02-02T04:42:00Z,27.5400,-82.7400,-0.459,1111122 
COMPS,ioos:station:USF.COMPS:ANM:1,2009-02-02T04:48:00Z,27.5400,-82.7400,-0.459,1111122 
COMPS,ioos:station:USF.COMPS:ANM:1,2009-02-02T04:54:00Z,27.5400,-82.7400,-0.443,1111122 
COMPS,ioos:station:USF.COMPS:ANM:1,2009-02-02T05:00:00Z,27.5400,-82.7400,-0.445,1111122 
COMPS,ioos:station:USF.COMPS:ANM:1,2009-02-02T05:06:00Z,27.5400,-82.7400,-0.455,1111122 
COMPS,ioos:station:USF.COMPS:ANM:1,2009-02-02T05:12:00Z,27.5400,-82.7400,-0.431,1111122 
COMPS,ioos:station:USF.COMPS:ANM:1,2009-02-02T05:18:00Z,27.5400,-82.7400,-0.421,1111122 
COMPS,ioos:station:USF.COMPS:ANM:1,2009-02-02T05:24:00Z,27.5400,-82.7400,-0.429,1111122 
COMPS,ioos:station:USF.COMPS:ANM:1,2009-02-02T05:30:00Z,27.5400,-82.7400,-0.428,1111122 
COMPS,ioos:station:USF.COMPS:ANM:1,2009-02-02T05:36:00Z,27.5400,-82.7400,-0.43,1111122 
COMPS,ioos:station:USF.COMPS:ANM:1,2009-02-02T05:42:00Z,27.5400,-82.7400,-0.429,1111122 
COMPS,ioos:station:USF.COMPS:ANM:1,2009-02-02T05:48:00Z,27.5400,-82.7400,-0.427,1111122 
COMPS,ioos:station:USF.COMPS:ANM:1,2009-02-02T05:54:00Z,27.5400,-82.7400,-0.418,1111122 